Home   Weather   Gütersloh   Past weeks

Flag for Germany Past Weather in Gütersloh, North Rhine-Westphalia, Germany — Yesterday and Last 2 Weeks

Now
28 °F

Clear.


Feels Like: 23 °F
Forecast: 28 / 40 °F
Wind: 5 mph from South

Location: Paderborn / Lippstadt

Current Time: Dec 2, 2016 at 11:31:37 pm

Latest Report: Dec 2, 2016 at 10:50 pm


Visibility: 10 mi

Pressure: 30.24 "Hg

Humidity: 86%

Dew Point: 25 °F

Location of GüterslohLocation

Past Weather in Gütersloh — Graph

°F

Gütersloh Temperature Yesterday

Maximum temperature yesterday: 43 °F (at 1:20 pm)
Minimum temperature yesterday: 39 °F (at 12:20 am)
Average temperature yesterday: 41 °F

High & Low Weather Summary for the Past Weeks

 TemperatureHumidityPressure
High61 °F (Nov 21, 8:50 pm)100% (Nov 27, 9:50 am)30.57 "Hg (Nov 27, 9:50 am)
Low18 °F (Nov 29, 6:50 am)28% (Nov 30, 11:50 am)29.33 "Hg (Nov 18, 5:20 am)
Average41 °F77%30.02 "Hg
* Reported Nov 17 10:20 pm — Dec 2 10:20 pm, Gütersloh, Weather by CustomWeather, © 2016

Note: Actual official high and low records may vary slightly from our data, if they occured in-between our weather recording intervals... More about our weather records

Advertising

Gütersloh Weather History for the Previous 24 Hours

Scroll right to see more
 ConditionsComfort  
Time TempWeatherWind HumidityBarometerVisibility
10:20 pm
Fri, Dec 2
30 °FClear.3 mph86%30.24 "Hg10 mi
9:50 pm30 °FClear.2 mph86%30.24 "Hg10 mi
9:20 pm30 °FClear.2 mph93%30.24 "Hg10 mi
8:50 pm30 °FClear.2 mph86%30.21 "Hg10 mi
8:20 pm30 °FClear.3 mph86%30.21 "Hg10 mi
7:50 pm30 °FPassing clouds.3 mph86%30.21 "HgN/A
7:20 pm30 °FPassing clouds.3 mph86%30.21 "HgN/A
6:50 pm32 °FClear.7 mph87%30.21 "Hg10 mi
6:20 pm32 °FClear.7 mph87%30.21 "Hg10 mi
5:50 pm34 °FClear.5 mph87%30.21 "Hg10 mi
5:20 pm37 °FClear.3 mph75%30.21 "Hg10 mi
4:50 pm37 °FPassing clouds.3 mph75%30.21 "HgN/A
4:20 pm39 °FPassing clouds.1 mph70%30.18 "HgN/A
3:50 pm41 °FScattered clouds.3 mph66%30.18 "HgN/A
3:20 pm43 °FScattered clouds.6 mph61%30.18 "HgN/A
2:50 pm43 °FPassing clouds.6 mph61%30.18 "HgN/A
2:20 pm43 °FPassing clouds.6 mph66%30.18 "HgN/A
1:50 pm43 °FPassing clouds.6 mph66%30.18 "HgN/A
1:20 pm43 °FPassing clouds.7 mph66%30.18 "HgN/A
12:50 pm43 °FPassing clouds.5 mph66%30.18 "HgN/A
12:20 pm43 °FPassing clouds.5 mph71%30.18 "HgN/A
11:50 am43 °FPassing clouds.3 mph76%30.18 "HgN/A
11:20 am41 °FPassing clouds.5 mph87%30.18 "HgN/A
10:50 am41 °FScattered clouds.3 mph87%30.15 "HgN/A
10:20 am41 °FScattered clouds.5 mph87%30.15 "HgN/A
9:50 am43 °FPartly sunny.5 mph93%30.12 "Hg6 mi
9:20 am43 °FBroken clouds.6 mph93%30.12 "Hg4 mi
8:50 am43 °FLight rain. Fog.9 mph93%30.12 "Hg2 mi
8:20 am43 °FLight rain. Fog.9 mph93%30.09 "Hg2 mi
7:50 am43 °FDrizzle. Fog.9 mph93%30.09 "Hg3 mi
7:20 am43 °FDrizzle. Fog.10 mph93%30.07 "Hg3 mi
6:50 am43 °FDrizzle. Fog.10 mph93%30.07 "Hg3 mi
6:20 am43 °FLight rain. Passing clouds.13 mph93%30.07 "Hg3 mi
5:50 am43 °FPassing clouds.12 mph93%30.07 "Hg4 mi
5:20 am43 °FRain. Fog.12 mph93%30.07 "Hg1 mi
4:50 am43 °FRain. Fog.12 mph93%30.07 "Hg1 mi
4:20 am43 °FRain. Fog.12 mph93%30.07 "Hg1 mi
3:50 am43 °FRain. Fog.12 mph93%30.07 "Hg1 mi
3:20 am43 °FRain. Fog.12 mph93%30.09 "Hg1 mi
2:50 am43 °FRain. Fog.13 mph93%30.09 "Hg2 mi
2:20 am43 °FRain. Fog.13 mph93%30.09 "Hg2 mi
1:50 am43 °FRain. Fog.12 mph93%30.09 "Hg2 mi
1:20 am43 °FRain. Fog.14 mph93%30.09 "Hg2 mi
12:50 am43 °FRain. Fog.15 mph93%30.09 "Hg2 mi
12:20 am43 °FRain. Fog.15 mph93%30.09 "Hg2 mi
11:50 pm
Thu, Dec 1
43 °FLight rain. Fog.15 mph93%30.09 "Hg1 mi
11:20 pm43 °FFog.12 mph93%30.09 "Hg2 mi
Weather by CustomWeather, © 2016

See weather overviewHow to use our weather pages